Location: ????????
(60.4333°N, 46.4710°E)
Time: 03:42:41
(UTC+00:00)

SeaSat 1 - Pass Details

Date: 25 November 2020
Orbit: 745 x 747 km, 108.0° (Epoch: 19 January)

Event Time Altitude Azimuth Distance (km) Brightness Sun altitude
Exits shadow 13:37:47 12° 45° (NE) 2,123 4.2 -10.6°
Maximum altitude 13:41:05 23° 359° (N) 1,567 3.9 -11.0°
Drops below altitude 10° 13:44:54 10° 309° (NW) 2,275 5.3 -11.4°
Sets 13:47:33 0° 295° (WNW) 3,199 6.4 -11.7°
